Location: Apollinopolis Magna
(24.9792°N, 32.8772°E)
Time: 04:28:45
(UTC+00:00)

ATLAS CENTAUR R/B - Pass Details

Date: 02 March 2021
Orbit: 475 x 670 km, 64.7° (Epoch: 30 March)

Event Time Altitude Azimuth Distance (km) Brightness Sun altitude
Rises 16:34:51 0° 216° (SW) 2,565 5.3 -10.7°
Reaches altitude 10° 16:37:05 10° 222° (SW) 1,665 4.4 -11.2°
Maximum altitude 16:40:38 47° 297° (WNW) 643 2.1 -12.0°
Drops below altitude 10° 16:44:09 10° 12° (NNE) 1,639 3.6 -12.8°
Sets 16:46:20 0° 19° (NNE) 2,519 4.5 -13.3°
